Flag for Germany Weather past 2 weeks in Öhringen, Baden-Württemberg, Germany

Now
53 °F

Drizzle. Overcast.


Feels Like: 52 °F
Forecast: 42 / 72 °F
Wind: 5 mph from West

Location: Oehringen

Current Time: May 30, 2015 at 7:31:12 AM

Latest Report: May 30, 2015 at 7:00 AM


Visibility: 8 mi

Pressure: 29.92 "Hg

Humidity: 92%

Dew point: 51 °F

Location of ÖhringenLocation

Historic Weather in Öhringen — Graph

°F

Öhringen temperature yesterday

Maximum temperature yesterday: 66 °F (at 4:00 PM)
Minimum temperature yesterday: 54 °F (at 6:00 AM)
Average temperature yesterday: 59 °F

Past Weeks' High & Low Weather Summary

 TemperatureHumidityPressure
High73 °F (May 18, 5:00 PM)99% (May 26, 2:00 AM)30.37 "Hg (May 26, 2:00 AM)
Low38 °F (May 22, 6:00 AM)28% (May 15, 7:00 PM)29.71 "Hg (May 18, 9:00 PM)
Average57 °F67%30.06 "Hg
* Reported May 15 6:00 AM — May 30 6:00 AM, Öhringen, Weather by CustomWeather, © 2015

Note: Actual official high and low records may vary slightly from our data, if they occured in-between our weather recording intervals... More about our weather records

Advertising

Öhringen weather history for previous 24 hours

 ConditionsComfort  
Time TempWeatherWind HumidityBarometerVisibility
6:00 AM
Sat, May 30
53 °FLight rain. Overcast.3 mph91%29.91 "Hg4 mi
5:00 AM54 °FDrizzle. Overcast.3 mph85%29.90 "Hg11 mi
4:00 AM55 °FOvercast.2 mph82%29.89 "Hg16 mi
3:00 AM56 °FOvercast.2 mph77%29.89 "Hg19 mi
2:00 AM55 °FOvercast.3 mph82%29.89 "Hg17 mi
1:00 AM56 °FOvercast.3 mph86%29.89 "Hg12 mi
12:00 AM55 °FOvercast.3 mph91%29.88 "Hg7 mi
11:00 PM
Fri, May 29
56 °FFog.3 mph96%29.88 "Hg4 mi
10:00 PM57 °FOvercast.3 mph94%29.88 "Hg4 mi
9:00 PM58 °FOvercast.2 mph92%29.85 "Hg7 mi
8:00 PM58 °FOvercast.2 mph91%29.85 "Hg6 mi
7:00 PM62 °FOvercast.2 mph71%29.83 "Hg19 mi
6:00 PM61 °FOvercast.2 mph74%29.83 "Hg17 mi
5:00 PM64 °FOvercast.3 mph63%29.82 "Hg19 mi
4:00 PM66 °FOvercast.2 mph60%29.83 "Hg18 mi
3:00 PM63 °FOvercast.2 mph68%29.86 "Hg19 mi
2:00 PM64 °FOvercast.2 mph57%29.88 "Hg22 mi
1:00 PM62 °FOvercast.3 mph73%29.91 "Hg12 mi
12:00 PM60 °FOvercast.2 mph73%29.93 "Hg11 mi
11:00 AM57 °FLight rain. Overcast.2 mph86%29.94 "Hg5 mi
10:00 AM60 °FPartly sunny.1 mph64%29.94 "Hg15 mi
9:00 AM58 °FOvercast.2 mph68%29.95 "Hg16 mi
8:00 AM56 °FOvercast.1 mph78%29.96 "Hg12 mi
7:00 AM55 °FPartly sunny.1 mph76%29.96 "Hg14 mi
Weather by CustomWeather, © 2015

See weather overviewHow to use our weather pages